Voltar ao catálogo

FENGYUN 1C DEB

AtivoPO
NORAD 31988·DEBRIS·🇨🇳 China

Lançado May 10, 1999 de Taiyuan Satellite Launch Center

Loading…

Próximas Passagens (próximas 24 horas)

TLE

AtualizadoSource: Space-Track

Época: Sep 14, 2026, 08:54 UTC

1 31988U 99025CPR 26257.37093432  .00001966  00000-0  88732-3 0  9990
2 31988  98.1184 309.8245 0060688 198.3443 161.5548 14.22178999680683

Acompanhe FENGYUN 1C DEB em tempo real com AllMySat

Download on the App Store